Date,TemperatureHighF,TemperatureAvgF,TemperatureLowF,DewpointHighF,DewpointAvgF,DewpointLowF,HumidityHigh,HumidityAvg,HumidityLow,PressureMaxIn,PressureMinIn,WindSpeedMaxMPH,WindSpeedAvgMPH,GustSpeedMaxMPH,PrecipitationSumIn
2013-3-1,35.0,31.4,29.4,27.3,25.5,23.1,89,79,69,29.83,29.73,5,2,10,0.00
2013-3-2,29.3,27.0,23.4,22.7,20.0,15.7,81,75,66,29.86,29.77,5,2,8,0.01
2013-3-3,26.6,23.2,21.3,18.1,16.1,13.6,79,74,67,29.92,29.83,8,3,18,0.00
2013-3-4,42.8,30.2,19.7,19.3,15.3,11.9,78,56,34,30.05,29.92,7,3,11,0.00
2013-3-5,46.8,36.7,31.7,33.7,28.9,15.8,96,75,46,30.00,29.51,2,0,5,0.22
2013-3-6,33.4,29.8,25.2,31.6,26.2,22.1,97,87,77,30.03,29.51,12,5,18,0.15
2013-3-7,34.1,30.6,28.7,27.4,26.0,24.4,90,83,71,30.19,30.02,7,3,9,0.01
2013-3-8,43.8,35.1,30.0,30.0,25.5,22.5,81,68,54,30.26,30.14,7,3,14,0.02
2013-3-9,59.9,42.8,27.8,34.5,28.6,22.7,84,60,33,30.28,30.15,3,1,6,0.00
2013-3-10,64.0,49.8,39.9,39.7,32.5,26.3,61,52,39,30.19,30.03,5,1,11,0.00
2013-3-11,53.1,48.7,43.0,49.6,39.9,29.6,95,72,57,30.06,29.73,6,1,13,0.26
2013-3-12,51.0,44.1,35.9,50.2,39.2,29.5,98,83,62,29.87,29.60,8,4,11,0.59
2013-3-13,36.4,32.4,24.9,30.6,25.2,16.5,92,75,56,30.07,29.85,9,4,15,0.01
2013-3-14,41.3,31.9,21.4,20.8,17.3,14.4,80,56,39,30.19,30.05,9,4,16,0.00
2013-3-15,59.1,42.8,29.1,38.7,27.7,16.1,66,56,44,30.10,29.78,6,2,10,0.00
2013-3-16,72.3,55.3,40.5,52.4,45.1,34.6,90,70,46,29.77,29.49,10,3,17,0.07
2013-3-17,54.1,43.9,32.9,49.6,41.5,32.1,97,91,82,30.02,29.71,4,0,8,0.19
2013-3-18,32.9,31.0,29.2,32.1,30.2,28.5,98,97,97,30.05,29.80,1,0,5,0.18
2013-3-19,53.4,40.9,31.5,39.8,25.3,6.8,99,62,20,29.94,29.74,11,5,17,0.01
2013-3-20,48.6,37.9,29.0,27.3,15.0,7.4,84,40,26,29.95,29.70,8,3,14,0.00
2013-3-21,29.8,23.9,19.6,25.6,15.4,10.7,84,70,52,29.92,29.66,8,4,13,0.00
2013-3-22,44.8,34.4,17.7,20.5,15.9,9.2,69,48,35,30.00,29.91,6,3,7,0.00
2013-3-23,51.1,39.2,30.0,30.3,21.7,15.6,62,49,39,29.95,29.81,4,1,7,0.00
2013-3-24,39.3,33.3,27.8,31.4,26.7,22.4,95,78,53,29.83,29.44,1,0,1,0.09
2013-3-25,37.6,30.0,26.5,29.7,25.8,23.5,96,85,61,29.70,29.43,9,3,13,0.25
2013-3-26,38.9,32.0,29.2,28.8,26.2,24.0,88,79,64,30.04,29.69,10,4,17,0.13
2013-3-27,37.9,31.5,27.6,27.0,24.7,22.2,85,76,62,30.15,30.04,7,4,12,0.04
2013-3-28,46.1,36.2,30.3,29.5,25.2,21.5,85,65,49,30.19,30.11,7,3,8,0.01
2013-3-29,54.0,41.3,30.6,30.3,26.4,23.3,77,57,38,30.22,30.08,5,1,8,0.00
2013-3-30,59.0,45.4,30.2,35.8,30.3,25.9,87,58,36,30.15,29.96,6,1,8,0.00
2013-3-31,54.3,48.3,43.9,50.7,42.5,29.5,98,82,48,29.96,29.67,5,1,7,0.39